Miscellaneous Local Product
Issued by NWS North Platte, NE

Home | Current Version | Previous Version | Graphics & Text | Print | Product List | Glossary On
Versions: 1 2 3 4 5 6 7 8 9 10 11 12 13 14 15 16 17 18 19 20 21 22 23 24 25 26 27 28 29 30 31 32 33 34 35 36 37 38 39 40 41 42 43 44 45 46 47 48 49 50
000
AXUS43 KLBF 240910
MISLBF


WESTERN AND NORTH CENTRAL NEBRASKA HOURLY WEATHER ROUNDUP
NATIONAL WEATHER SERVICE NORTH PLATTE NE
400 AM CDT FRI APR 24 2015

***STATIONS NOT REPORTING VARIABLES SUCH AS SKY/WEATHER OR
PRESSURE ARE PROVIDED BY THE NEBRASKA DEPARTMENT OF
ROADS...RAWS...AND APRS NETWORKS...AND ARE NOT UNDER
NATIONAL WEATHER SERVICE QUALITY CONTROL***

...OBSERVATIONS IN AND NEAR THE EASTERN PANHANDLE OF NEBRASKA...

CITY           SKY/WX    TMP DP  RH WIND       PRES   REMARKS
PINE RIDGE     PTCLDY    49  39  68 SW7       29.63R
CHADRON        CLEAR     48  39  71 MISG      29.62F
ALLIANCE       PTCLDY    52  43  71 SW14      29.67F
SIDNEY         MOCLDY    46  44  93 SE8       29.72F
WHITECLAY        N/A     46  37  72 S7          N/A
CRESCENT LAKE    N/A     53  45  75 S13         N/A
BIG SPRINGS      N/A     52  49  90 S10         N/A
$$

...OBSERVATIONS IN NORTH CENTRAL NEBRASKA...

CITY           SKY/WX    TMP DP  RH WIND       PRES   REMARKS
VALENTINE      CLOUDY    52  44  74 S13       29.65R
THEDFORD       MOCLDY    52  44  73 SW3       29.71R
AINSWORTH      CLOUDY    51  45  79 S13       29.67S
O`NEILL        MOCLDY    53  43  70 S10       29.71S
ORD            CLOUDY    54  45  71 S10G21    29.71F
BROKEN BOW     CLOUDY    54  47  77 SE9       29.70F
BROWNLEE         N/A     51  47  86 S10         N/A
VALENTINE NWR    N/A     48  45  90 S10         N/A
SPRINGVIEW       N/A     53  44  73 S9G20       N/A
HALSEY           N/A     53  44  71 S6G13       N/A
BREWSTER         N/A     50  46  87 S3          N/A
ROSE             N/A     53  48  83 E9          N/A
NEWPORT          N/A     52  44  75 S17         N/A
SARGENT          N/A     53  47  80 CALM        N/A
COMSTOCK         N/A     56  50  80 S13         N/A
EWING            N/A     53  44  72 S8          N/A
$$

...OBSERVATIONS IN SOUTHWEST NEBRASKA AND FAR NORTHEAST COLORADO...

CITY           SKY/WX    TMP DP  RH WIND       PRES   REMARKS
WRAY           FAIR     N/A N/A N/A E6        29.73S HAZE
HOLYOKE        CLOUDY    54  52  94 CALM      29.76R
IMPERIAL       PTCLDY    48  46  93 S5        29.74R FOG
OGALLALA       MOCLDY    50  48  93 SW9       29.72F
MCCOOK         MOCLDY    53  50  89 SE13      29.71F
LEXINGTON      CLOUDY    55  50  83 W3        29.68R
PAXTON           N/A     52  49  89 S14         N/A
SUTHERLAND       N/A     49  47  91 S16         N/A
BRADY            N/A     52  48  87 CALM        N/A
GOTHENBURG       N/A     55  47  76 SE3         N/A
CALLAWAY         N/A     52  48  87 S12         N/A
$$

...NORTH PLATTE AREA...

CITY           SKY/WX    TMP DP  RH WIND       PRES   REMARKS
DOWNTOWN         N/A     53  49  88 CALM        N/A
$$

...SOME WEATHER OBSERVATIONS FROM AROUND THE REGION...

CITY           SKY/WX    TMP DP  RH WIND       PRES   REMARKS
DENVER         PTCLDY    45  32  60 SW7       29.76F
LARAMIE        MOCLDY    36  29  75 SW15      29.80F WCI  27
CHEYENNE       CLOUDY    46  28  49 W12       29.77F
SCOTTSBLUFF    MOCLDY    49  32  52 NW7       29.69F
RAPID CITY     MOCLDY    49  41  74 NW10      29.59F
PIERRE         CLOUDY    53  42  66 SE10      29.56F
WINNER         FAIR      55  42  61 S12       29.61F
SIOUX FALLS    CLOUDY    54  32  43 SE18G24   29.76F
OMAHA          CLOUDY    55  39  54 SE14      29.82F
GRAND ISLAND   CLOUDY    51  42  71 S13       29.76F
KANSAS CITY    CLOUDY    58  38  47 S10       29.91S
WICHITA        CLOUDY    60  53  77 NE5       29.85R
HAYS           CLOUDY    55  48  76 S21G29    29.76F
LIBERAL        MOCLDY    55  52  88 S13       29.72F
GOODLAND       MOCLDY    52  51  97 SE17      29.72F
$$



USA.gov is the U.S. government's official web portal to all federal, state and local government web resources and services.